Location: Tel Aviv
(32.0670°N, 34.7670°E)
Time: 08:05:40
(UTC+02:00)

deb Explorer IX - Visible Passes

Search period start: 29 November 2023 00:00
Search period end: 09 December 2023 00:00
Orbit: 523 x 938 km, 38.8° (Epoch: 28 November)

Date Brightness Start Highest point End Pass type
(mag) Time Alt. Az. Time Alt. Az. Time Alt. Az.
29 Nov ? 03:03:36 23° E 03:03:36 23° E 03:05:54 10° E visible
29 Nov ? 04:42:59 39° W 04:45:15 68° SSW 04:51:33 10° SE visible
30 Nov ? 03:54:24 68° ESE 03:54:24 68° ESE 03:59:51 10° ESE visible
30 Nov ? 05:33:47 11° W 05:38:28 27° SW 05:43:42 10° SSE visible
01 Dec ? 03:05:47 22° ESE 03:05:47 22° ESE 03:07:57 10° ESE visible
01 Dec ? 04:45:11 31° WSW 04:46:51 37° SW 04:52:34 10° SSE visible
02 Dec ? 03:56:32 42° S 03:56:32 42° S 04:01:05 10° SE visible
02 Dec ? 05:37:08 10° WSW 05:39:43 13° SW 05:42:22 10° SSW visible
03 Dec ? 03:07:51 18° SE 03:07:51 18° SE 03:09:19 10° SE visible
03 Dec ? 04:47:14 18° SW 04:48:02 19° SW 04:52:12 10° S visible
04 Dec ? 03:58:31 21° S 03:58:31 21° S 04:01:12 10° SSE visible
05 Dec ? 03:09:43 10° SSE 03:09:43 10° SSE 03:09:44 10° SSE visible
05 Dec ? 19:08:47 10° SSW 19:08:59 11° SSW 19:08:59 11° SSW visible
06 Dec ? 18:17:36 10° SSW 18:20:01 21° SSE 18:20:01 21° SSE visible
07 Dec ? 17:26:53 10° S 17:28:55 14° SE 17:30:55 10° ESE visible
07 Dec ? 19:09:09 10° WSW 19:10:18 19° WSW 19:10:18 19° WSW visible
08 Dec ? 18:17:18 10° SW 18:21:07 50° SSE 18:21:07 50° SSE visible
